Weather Roundup
Issued by NWS Springfield, MO

Home | Current Version | Previous Version | Text Only | Print | Product List | Glossary On
Versions: 1 2 3 4 5 6 7 8 9 10 11 12 13 14 15 16 17 18 19 20 21 22 23 24 25 26 27 28 29 30 31 32 33 34 35 36 37 38 39 40 41 42 43 44 45 46 47 48 49 50
000
NZUS99 KSGF 211359
HRRSGF

HOURLY WEATHER
NATIONAL WEATHER SERVICE SPRINGFIELD MO
900 AM CDT TUE OCT 21 2014

......SGF CWA......

CITY           SKY/WX    TMP DP  RH WIND       PRES   REMARKS
SPRINGFIELD    SUNNY     55  51  86 CALM      30.13R
JOPLIN         FOG       53  53 100 CALM      30.14R VSB 1/4
WEST PLAINS    SUNNY     55  49  80 CALM      30.13R
ROLLA          SUNNY     53  46  77 NW5       30.12R
OSAGE BEACH    SUNNY     46  43  87 CALM      30.14R
BRANSON        SUNNY     55  55 100 CALM      30.15R

......SURROUNDING SGF CWA......

CITY           SKY/WX    TMP DP  RH WIND       PRES   REMARKS
CHANUTE        SUNNY     54  52  93 E3        30.13R
PARSONS        SUNNY     55  54  96 CALM      30.13R
COFFEYVILLE    FOG       52  52 100 CALM      30.12R VSB<1/4
EMPORIA        SUNNY     50  47  89 E3        30.12R
SILOAM SPRINGS CLOUDY    52  46  82 CALM      30.16R VSB<1/4
HARRISON AR    SUNNY     57  57 100 CALM      30.15R
NEAR YELLVILLE CLOUDY    52  46  82 CALM      30.14R VSB<1/4

......KANSAS AND MISSOURI......

CITY           SKY/WX    TMP DP  RH WIND       PRES   REMARKS
KANSAS CTY INT SUNNY     54  46  74 CALM      30.13R
DOWNTOWN KC    SUNNY     50  47  89 CALM      30.14R
COLUMBIA       SUNNY     54  47  77 N5        30.13R
SEDALIA        SUNNY     53  45  74 NE3       30.15R
ST JOSEPH      FAIR      43  42  97 CALM      30.14R FOG
ST LOUIS       SUNNY     55  46  71 N3        30.12R
SPIRIT OF STL  SUNNY     51  47  86 SW3       30.12R
KIRKSVILLE     SUNNY     50  45  83 NE6       30.15R
WICHITA        PTSUNNY   60  55  83 E7        30.10R
TOPEKA         SUNNY     44  44 100 CALM      30.13S
OLATHE         SUNNY     54  47  77 CALM      30.13R

......TENNESSEE......

CITY           SKY/WX    TMP DP  RH WIND       PRES   REMARKS
MEMPHIS        SUNNY     62  54  74 NE3       30.09R
NASHVILLE      SUNNY     58  52  80 NW3       30.07R

......ARKANSAS.......

CITY           SKY/WX    TMP DP  RH WIND       PRES   REMARKS
FAYETTEVILLE   FOG       48  48 100 CALM      30.15R VSB 1/4
FT SMITH       MOSUNNY   61  58  90 NE5       30.13R
LITTLE ROCK    SUNNY     64  57  78 N3        30.13R

......OKLAHOMA.......

CITY           SKY/WX    TMP DP  RH WIND       PRES   REMARKS
TULSA          PTSUNNY   60  59  96 E3        30.10R FOG
PONCA CITY     MOSUNNY   63  59  87 SE6       30.09R
MCALESTER      PTSUNNY   62  60  93 CALM      30.12R
OKLAHOMA CITY  MOSUNNY   62  59  90 S5        30.10R

......IOWA............

CITY           SKY/WX    TMP DP  RH WIND       PRES   REMARKS
DES MOINES     SUNNY     48  41  76 E5        30.15R
QUAD CITIES    SUNNY     47  42  83 CALM      30.18R

......ILLINOIS........

CITY           SKY/WX    TMP DP  RH WIND       PRES   REMARKS
QUINCY         SUNNY     49  43  80 NE9       30.15R
CHICAGO        PTSUNNY   47  39  74 N13       30.14R




USA.gov is the U.S. government's official web portal to all federal, state and local government web resources and services.